Weather History for FAMM - October, 2012

Change the Weather History Date:

Monday, October 1, 2012

  Actual Average Record
Temperature  
Mean Temperature 68 °F -  
Max Temperature 85 °F - - ()
Min Temperature 50 °F - - ()
Cooling Degree Days 2    
Growing Degree Days 18 (Base 50)    
Moisture  
Dew Point 19 °F    
Average Humidity 16    
Maximum Humidity 33    
Minimum Humidity 4    
Precipitation  
Precipitation 0.00 in - - ()
Sea Level Pressure  
Sea Level Pressure 30.24 in    
Wind  
Wind Speed 7 mph ()    
Max Wind Speed 16 mph    
Max Gust Speed -    
Visibility 17.8 miles    
Events      
T = Trace of Precipitation, MM = Missing Value Source: Averaged Metar Reports

Daily Weather History Graph

Daily Weather History Graph

Search for Another Location

Airport or City:

Trip Planner

Search our weather history database for the weather conditions in past years. The results will help you decide how hot, cold, wet, or windy it might be!

Date:

Astronomy

Oct. 01, 2012 Rise Set
Actual Time 5:57 AM SAST 6:17 PM SAST
Civil Twilight 5:34 AM SAST 6:40 PM SAST
Nautical Twilight 5:07 AM SAST 7:07 PM SAST
Astronomical Twilight 4:40 AM SAST 7:35 PM SAST
Moon 7:36 PM SAST (10/1) 6:25 AM SAST (10/1)
Length of Visible Light 13h 06m
Length of Day
12h 20m
Full, 98% of the Moon is Illuminated
Oct 1
Full
Oct 8
Last Quarter
Oct 15
New
Oct 22
First Quarter
Oct 29
Full

Hourly Weather History & Observations

Time (SAST) Temp. Dew Point Humidity Pressure Visibility Wind Dir Wind Speed Gust Speed Precip Events Conditions
12:00 AM 59.0 °F 14.0 °F 17% 30.24 in - NE 4.6 mph - N/A   Unknown
1:00 AM 55.4 °F 15.8 °F 21% 30.24 in - ENE 3.5 mph - N/A   Unknown
2:00 AM 53 °F 16 °F 12%  in - East 6.9 mph - -  
2:00 AM 51.8 °F 15.8 °F 24% 30.24 in - East 5.8 mph - N/A   Unknown
3:00 AM 51.8 °F 17.6 °F 26% 30.21 in - ENE 4.6 mph - N/A   Unknown
4:00 AM 51.8 °F 17.6 °F 26% 30.21 in - NE 6.9 mph - N/A   Unknown
5:00 AM 53 °F 16 °F 12%  in 19 mi NE 8.1 mph - -  
5:00 AM 51.8 °F 15.8 °F 24% 30.24 in - NE 8.1 mph - N/A   Clear
6:00 AM 53.6 °F 21.2 °F 28% 30.27 in - NNE 10.4 mph - N/A   Clear
6:48 AM 57.2 °F 28.4 °F 33% 30.30 in - NNE 10.4 mph - N/A   Clear
7:00 AM 57.2 °F 28.4 °F 33% 30.30 in - NNE 10.4 mph - N/A   Clear
8:00 AM 67 °F 35 °F 20%  in 12 mi NNE 16.1 mph - -  
8:00 AM 66.2 °F 33.8 °F 30% 30.30 in - NNE 16.1 mph - N/A   Clear
9:00 AM 69.8 °F 33.8 °F 27% 30.30 in - NNE 15.0 mph - N/A   Clear
10:00 AM 75.2 °F 32.0 °F 21% 30.30 in - NNE 12.7 mph - N/A   Clear
11:00 AM 79 °F 26 °F 7%  in 19 mi NE 9.2 mph - -  
11:00 AM 78.8 °F 26.6 °F 15% 30.30 in - NE 8.1 mph - N/A   Clear
12:00 PM 80.6 °F 21.2 °F 11% 30.27 in - NW 3.5 mph - N/A   Clear
1:00 PM 82.4 °F 19.4 °F 10% 30.27 in - North 4.6 mph - N/A   Clear
2:00 PM 84 °F 10 °F 4%  in 19 mi North 6.9 mph - -  
2:00 PM 82.4 °F 10.4 °F 7% 30.24 in - North 6.9 mph - N/A   Clear
3:00 PM 84.2 °F 3.2 °F 5% 30.21 in - NW 5.8 mph - N/A   Clear
4:00 PM 84.2 °F 3.2 °F 5% 30.18 in - WSW 3.5 mph - N/A   Clear
5:00 PM 84 °F 2 °F 4%  in 19 mi NNE 8.1 mph - -  
5:00 PM 84.2 °F 3.2 °F 5% 30.18 in - NNE 6.9 mph - N/A   Clear
6:00 PM 80.6 °F 10.4 °F 7% 30.18 in - NNE 5.8 mph - N/A   Clear
7:00 PM 77.0 °F 12.2 °F 9% 30.21 in - NNE 4.6 mph - N/A   Clear
8:00 PM 71 °F 20 °F 7%  in 19 mi NE 6.9 mph - -  
8:00 PM 69.8 °F 21.2 °F 16% 30.21 in - NE 6.9 mph - N/A   Clear
9:00 PM 68.0 °F 21.2 °F 17% 30.24 in - NNE 8.1 mph - N/A   Unknown
10:00 PM 66.2 °F 23.0 °F 19% 30.24 in - North 6.9 mph - N/A   Unknown
11:00 PM 65 °F 22 °F 10%  in - NNE 5.8 mph - -  
11:00 PM 64.4 °F 23.0 °F 21% 30.24 in - NNE 5.8 mph - N/A   Unknown